Language: 


Des rapports , des résumés tant et plus, au choix de chacun....


Données Historiques de Météogheer
Journalier Rapport pour Décembre 26, 2017 Unitée:  Impériale    Métrique   Les deux
Suivant Jour »
Journalier Hebdomadaire Mensuel Annuel Sur mesure
  Max: Min: Moyenne:
Température: 46 °F 41.5 °F 44.1 °F
Point de rosée: 44.6 °F 41 °F 42.3 °F
Humidité: 98% 81% 91%
Vent: 22.8mph 4.3mph 11.6mph
Rafales: 26.6mph - -
Vent- - SW
Pression: 29.6 in 29.5 in -
Pluie: 0.16 in    
Historical Graphs
 
 
Données tabulaires pour Décembre 26, 2017
Heure Température Point de rosée Pression Vent Vent Rafales Humidité Pluie Taux (Horaire) Conditions
00:01 42.1 °F 41 °F 29.6 in South 20.1 mph 23.5 mph 94% 0 in
00:03 42.1 °F 41 °F 29.6 in SSW 19.5 mph 23.7 mph 94% 0 in
00:05 42.1 °F 41 °F 29.6 in SSW 12.5 mph 23.7 mph 94% 0 in
00:10 41.9 °F 41 °F 29.6 in SSW 10.7 mph 23.7 mph 94% 0 in
00:11 41.9 °F 41 °F 29.6 in South 15.7 mph 23.7 mph 94% 0 in
00:14 41.9 °F 41 °F 29.6 in South 14.1 mph 23.3 mph 94% 0 in
00:19 41.9 °F 41 °F 29.6 in South 14.8 mph 25.3 mph 94% 0 in
00:20 41.9 °F 41 °F 29.6 in SSE 8.7 mph 25.3 mph 94% 0 in
00:25 41.7 °F 41 °F 29.6 in SSE 15.2 mph 25.3 mph 95% 0 in
00:26 41.7 °F 41 °F 29.6 in SSW 11 mph 25.3 mph 95% 0 in
00:31 41.7 °F 41 °F 29.6 in SSE 13.2 mph 23 mph 95% 0 in
00:36 41.7 °F 41 °F 29.6 in SSW 15.7 mph 25.3 mph 95% 0 in
00:38 41.7 °F 41 °F 29.6 in South 12.5 mph 25.3 mph 95% 0 in
00:39 41.7 °F 41 °F 29.6 in South 17 mph 25.3 mph 95% 0 in
00:44 41.7 °F 41 °F 29.6 in South 8.5 mph 25.3 mph 95% 0 in
00:49 41.7 °F 41 °F 29.6 in South 13.2 mph 22.1 mph 95% 0 in
00:51 41.7 °F 41 °F 29.6 in South 16.3 mph 19.2 mph 95% 0 in
00:52 41.7 °F 41 °F 29.6 in South 16.8 mph 19.2 mph 95% 0 in
00:57 41.7 °F 41 °F 29.6 in SSW 12.3 mph 19.2 mph 95% 0 in
01:02 41.7 °F 41 °F 29.6 in South 13 mph 24.6 mph 95% 0 in
01:05 41.7 °F 41 °F 29.6 in South 11 mph 24.6 mph 95% 0 in
01:10 41.7 °F 41 °F 29.6 in South 11 mph 19.2 mph 95% 0 in
01:13 41.7 °F 41 °F 29.6 in SSW 10.5 mph 19.5 mph 95% 0 in
01:14 41.7 °F 41 °F 29.6 in SSE 14.8 mph 19.5 mph 95% 0 in
01:19 41.7 °F 41 °F 29.6 in South 10.7 mph 19.7 mph 95% 0 in
01:24 41.7 °F 41 °F 29.6 in SSE 11 mph 21.5 mph 95% 0 in
01:27 41.7 °F 41 °F 29.5 in South 15.2 mph 22.8 mph 95% 0 in
01:28 41.7 °F 41 °F 29.5 in SSE 21.3 mph 22.8 mph 95% 0 in
01:33 41.7 °F 41 °F 29.5 in South 13.2 mph 22.8 mph 95% 0 in
01:34 41.7 °F 41 °F 29.5 in SW 15.2 mph 22.8 mph 95% 0 in
01:38 41.7 °F 41 °F 29.5 in South 10.1 mph 21.3 mph 95% 0 in
01:39 41.7 °F 41 °F 29.5 in SSW 8.5 mph 20.1 mph 95% 0 in
01:44 41.9 °F 41 °F 29.5 in South 16.8 mph 21.5 mph 95% 0 in
01:45 41.9 °F 41 °F 29.5 in SSW 9.8 mph 21.5 mph 95% 0 in
01:50 41.9 °F 41 °F 29.5 in SSW 22.8 mph 22.8 mph 95% 0 in
01:54 42.1 °F 41 °F 29.5 in SSW 17.4 mph 22.8 mph 94% 0 in
01:57 42.1 °F 41 °F 29.5 in SW 7.6 mph 22.8 mph 94% 0 in
02:02 42.1 °F 41 °F 29.5 in WSW 12.8 mph 19 mph 94% 0 in
02:07 42.3 °F 41 °F 29.5 in SSW 9.8 mph 17.4 mph 94% 0 in
02:12 42.3 °F 41 °F 29.5 in SW 10.1 mph 18.1 mph 94% 0 in
02:17 42.4 °F 41 °F 29.5 in SSW 7.8 mph 18.8 mph 94% 0 in
02:18 42.4 °F 41 °F 29.5 in SSW 12.3 mph 18.8 mph 94% 0 in
02:23 42.4 °F 42.8 °F 29.5 in WSW 12.8 mph 14.5 mph 95% 0 in
02:24 42.4 °F 42.8 °F 29.5 in SSW 14.5 mph 14.5 mph 95% 0 in
02:27 42.4 °F 41 °F 29.5 in SSW 9.8 mph 14.8 mph 94% 0 in
02:32 42.6 °F 42.8 °F 29.5 in SSW 12.8 mph 14.8 mph 95% 0 in
02:37 42.6 °F 42.8 °F 29.5 in SSW 12.8 mph 15.4 mph 95% 0 in
02:42 42.8 °F 41 °F 29.5 in SSW 14.5 mph 15.9 mph 94% 0 in
02:44 42.8 °F 41 °F 29.5 in SSW 13 mph 17.7 mph 94% 0 in
02:49 42.8 °F 41 °F 29.5 in South 9.6 mph 21 mph 94% 0 in
02:52 43 °F 41 °F 29.5 in South 14.8 mph 21 mph 94% 0 in
02:57 43.2 °F 42.8 °F 29.5 in SSW 15.4 mph 21 mph 94% 0 in
03:00 43.3 °F 42.8 °F 29.5 in SSW 10.5 mph 17.7 mph 94% 0 in
03:05 43.3 °F 42.8 °F 29.5 in SSW 12.8 mph 17.7 mph 94% 0 in
03:10 43.5 °F 42.8 °F 29.5 in SSW 17.7 mph 20.1 mph 93% 0 in
03:11 43.5 °F 42.8 °F 29.5 in SW 17 mph 20.1 mph 93% 0 in
03:16 43.7 °F 42.8 °F 29.5 in WSW 15.4 mph 22.1 mph 93% 0 in
03:21 43.9 °F 42.8 °F 29.5 in SW 14.3 mph 22.1 mph 93% 0 in
03:22 43.9 °F 42.8 °F 29.5 in SSW 15.2 mph 22.1 mph 93% 0 in
03:27 44.1 °F 42.8 °F 29.5 in SSW 13.2 mph 17.9 mph 93% 0 in
03:28 44.1 °F 42.8 °F 29.5 in SW 14.3 mph 17.9 mph 93% 0 in
03:30 44.1 °F 42.8 °F 29.5 in SSW 13 mph 19.7 mph 93% 0 in
03:33 44.2 °F 42.8 °F 29.5 in South 13.2 mph 22.1 mph 93% 0 in
03:38 44.2 °F 42.8 °F 29.5 in SSW 11 mph 22.1 mph 93% 0 in
03:42 44.2 °F 42.8 °F 29.5 in WSW 17.4 mph 18.8 mph 93% 0 in
03:46 44.6 °F 42.8 °F 29.5 in SW 13.9 mph 26.6 mph 93% 0 in
03:51 44.6 °F 42.8 °F 29.5 in WSW 10.3 mph 26.6 mph 93% 0 in
03:52 44.6 °F 42.8 °F 29.5 in SW 12.5 mph 26.6 mph 93% 0 in
03:54 44.6 °F 42.8 °F 29.5 in WSW 15.4 mph 26.6 mph 93% 0 in
03:57 44.6 °F 42.8 °F 29.5 in SW 14.8 mph 19.5 mph 93% 0 in
04:02 44.4 °F 42.8 °F 29.5 in SSW 13.2 mph 19.5 mph 93% 0 in
04:05 44.4 °F 42.8 °F 29.5 in WSW 15.2 mph 19.7 mph 94% 0 in
04:06 44.4 °F 42.8 °F 29.5 in WSW 17.4 mph 19.7 mph 94% 0 in
04:12 44.2 °F 42.8 °F 29.5 in WSW 12.3 mph 19.7 mph 94% 0 in
04:17 44.2 °F 42.8 °F 29.5 in WSW 10.3 mph 20.4 mph 95% 0 in
04:18 44.2 °F 42.8 °F 29.5 in WSW 10.3 mph 20.4 mph 95% 0 in
04:19 44.2 °F 42.8 °F 29.5 in WSW 15.4 mph 20.4 mph 95% 0.01 in
04:24 44.1 °F 42.8 °F 29.5 in WSW 12.8 mph 20.4 mph 96% 0.01 in
04:25 44.1 °F 42.8 °F 29.5 in WSW 15.4 mph 19.5 mph 96% 0.01 in
04:26 44.1 °F 42.8 °F 29.5 in WSW 11 mph 19.5 mph 96% 0.01 in
04:31 43.9 °F 42.8 °F 29.5 in WSW 10.3 mph 19.5 mph 96% 0.01 in
04:36 43.9 °F 42.8 °F 29.5 in WSW 15.4 mph 19.2 mph 97% 0.01 in
04:38 43.9 °F 42.8 °F 29.5 in WSW 11 mph 19.2 mph 97% 0.01 in
04:39 43.7 °F 42.8 °F 29.5 in WSW 10.7 mph 19.2 mph 97% 0.01 in
04:44 43.7 °F 42.8 °F 29.5 in WSW 10.7 mph 19.2 mph 97% 0.01 in
04:49 43.7 °F 42.8 °F 29.5 in WSW 12.1 mph 14.1 mph 97% 0.01 in
04:54 43.7 °F 42.8 °F 29.5 in WSW 8.5 mph 15.4 mph 97% 0.01 in
04:56 43.7 °F 42.8 °F 29.5 in WSW 6.5 mph 15.4 mph 97% 0.01 in
04:57 43.7 °F 42.8 °F 29.5 in WSW 13.2 mph 15.4 mph 97% 0.01 in
05:02 43.5 °F 42.8 °F 29.5 in WSW 10.7 mph 15.4 mph 97% 0.01 in
05:05 43.5 °F 42.8 °F 29.5 in WSW 9.6 mph 13.2 mph 98% 0.01 in
05:10 43.5 °F 42.8 °F 29.5 in SW 8.5 mph 13.2 mph 98% 0.01 in
05:15 43.5 °F 42.8 °F 29.5 in WSW 8.1 mph 16.3 mph 98% 0.02 in
05:16 43.5 °F 42.8 °F 29.5 in SW 10.7 mph 16.3 mph 98% 0.02 in
05:21 43.5 °F 42.8 °F 29.5 in WSW 13.2 mph 16.3 mph 98% 0.01 in
05:26 43.5 °F 42.8 °F 29.5 in SW 9.6 mph 13.2 mph 98% 0.01 in
05:31 43.3 °F 42.8 °F 29.5 in WSW 10.7 mph 13 mph 98% 0.01 in
05:36 43.3 °F 42.8 °F 29.5 in WSW 10.3 mph 12.3 mph 98% 0.01 in
05:40 43.3 °F 42.8 °F 29.5 in SW 6.3 mph 12.8 mph 98% 0.01 in
05:44 43.3 °F 42.8 °F 29.5 in WSW 7.6 mph 13.2 mph 98% 0.01 in
05:46 43.3 °F 42.8 °F 29.5 in WSW 7.6 mph 13.2 mph 98% 0.01 in
05:51 43.3 °F 42.8 °F 29.5 in WSW 10.7 mph 13.2 mph 98% 0.01 in
05:53 43.3 °F 42.8 °F 29.5 in SSW 12.5 mph 12.8 mph 98% 0.01 in
05:58 43.3 °F 42.8 °F 29.5 in SW 7.4 mph 12.8 mph 98% 0.01 in
06:01 43.3 °F 42.8 °F 29.5 in WSW 8.1 mph 17.2 mph 98% 0.01 in
06:05 43.3 °F 42.8 °F 29.5 in SW 7.4 mph 17.2 mph 98% 0.01 in
06:08 43.3 °F 42.8 °F 29.5 in SW 6.9 mph 17.2 mph 98% 0.01 in
06:13 43.2 °F 42.8 °F 29.5 in SSW 8.1 mph 11 mph 98% 0 in
06:18 43 °F 42.8 °F 29.5 in SW 7.4 mph 9.8 mph 98% 0 in
06:20 43 °F 42.8 °F 29.5 in WSW 7.4 mph 9.8 mph 98% 0 in
06:25 43 °F 42.8 °F 29.5 in WSW 6.3 mph 10.5 mph 98% 0 in
06:27 43 °F 42.8 °F 29.5 in SW 5.8 mph 10.5 mph 98% 0 in
06:32 42.8 °F 42.8 °F 29.5 in WSW 6.3 mph 10.5 mph 97% 0 in
06:37 42.8 °F 42.8 °F 29.5 in WSW 7.8 mph 8.7 mph 97% 0 in
06:38 42.8 °F 42.8 °F 29.5 in WSW 9.6 mph 9.6 mph 97% 0 in
06:39 42.8 °F 42.8 °F 29.5 in WSW 7.6 mph 10.5 mph 97% 0 in
06:44 42.6 °F 42.8 °F 29.5 in SW 8.5 mph 11.9 mph 97% 0 in
06:45 42.6 °F 42.8 °F 29.5 in WSW 8.1 mph 11.9 mph 97% 0 in
06:46 42.6 °F 42.8 °F 29.5 in WSW 8.5 mph 11.9 mph 97% 0 in
06:51 42.4 °F 42.8 °F 29.5 in WSW 12.8 mph 19.7 mph 96% 0 in
06:52 42.4 °F 42.8 °F 29.5 in WSW 15.4 mph 19.7 mph 96% 0 in
06:57 42.6 °F 42.8 °F 29.5 in WSW 9.8 mph 21 mph 95% 0 in
07:02 42.4 °F 42.8 °F 29.5 in WSW 15.9 mph 19.5 mph 95% 0 in
07:03 42.4 °F 42.8 °F 29.5 in WSW 14.3 mph 18.1 mph 95% 0 in
07:04 42.4 °F 42.8 °F 29.5 in WSW 15.4 mph 17.7 mph 95% 0 in
07:09 42.4 °F 42.8 °F 29.5 in WSW 8.1 mph 17.7 mph 95% 0 in
07:12 42.4 °F 42.8 °F 29.5 in WSW 10.5 mph 17.7 mph 95% 0 in
07:17 42.4 °F 42.8 °F 29.5 in WSW 10.7 mph 12.8 mph 95% 0 in
07:18 42.3 °F 41 °F 29.5 in WSW 11 mph 12.5 mph 95% 0 in
07:19 42.3 °F 41 °F 29.5 in WSW 8.7 mph 12.5 mph 95% 0 in
07:24 42.3 °F 41 °F 29.5 in WSW 10.3 mph 11 mph 95% 0 in
07:25 42.3 °F 41 °F 29.5 in SW 8.5 mph 11 mph 95% 0 in
07:29 42.3 °F 41 °F 29.5 in SW 8.1 mph 10.7 mph 95% 0 in
07:32 42.3 °F 41 °F 29.5 in WSW 8.5 mph 11 mph 95% 0 in
07:37 42.1 °F 41 °F 29.5 in WSW 7.4 mph 11 mph 95% 0 in
07:42 42.1 °F 41 °F 29.5 in SSW 10.1 mph 10.7 mph 95% 0 in
07:44 42.1 °F 41 °F 29.5 in SW 7.6 mph 10.7 mph 95% 0 in
07:47 41.9 °F 41 °F 29.5 in SSW 6.5 mph 10.1 mph 95% 0 in
07:49 41.9 °F 41 °F 29.5 in SW 6.3 mph 10.1 mph 95% 0 in
07:53 42.1 °F 41 °F 29.5 in SSW 7.6 mph 10.1 mph 95% 0 in
07:54 42.1 °F 42.8 °F 29.5 in SSW 7.4 mph 10.1 mph 96% 0 in
08:00 42.1 °F 42.8 °F 29.5 in SSW 6.5 mph 10.1 mph 96% 0 in
08:01 42.1 °F 42.8 °F 29.5 in SW 7.8 mph 10.1 mph 96% 0 in
08:06 41.9 °F 42.8 °F 29.5 in SW 6 mph 10.3 mph 96% 0 in
08:07 41.9 °F 42.8 °F 29.5 in SW 8.9 mph 11.9 mph 97% 0 in
08:12 41.9 °F 42.8 °F 29.5 in SW 7.4 mph 11.9 mph 97% 0 in
08:13 41.9 °F 42.8 °F 29.5 in WSW 8.7 mph 11.9 mph 97% 0 in
08:14 41.9 °F 42.8 °F 29.5 in WSW 15.7 mph 15.7 mph 97% 0 in
08:19 41.9 °F 42.8 °F 29.5 in WSW 8.7 mph 15.7 mph 97% 0 in
08:21 41.9 °F 42.8 °F 29.5 in SW 7.4 mph 15.7 mph 97% 0 in
08:26 41.9 °F 42.8 °F 29.5 in SW 9.8 mph 11 mph 97% 0 in
08:31 41.9 °F 42.8 °F 29.5 in WSW 6.5 mph 11 mph 97% 0 in
08:34 41.7 °F 41 °F 29.5 in WSW 7.6 mph 11 mph 97% 0 in
08:38 41.9 °F 42.8 °F 29.5 in WSW 8.1 mph 11 mph 97% 0 in
08:40 41.9 °F 42.8 °F 29.5 in WSW 10.1 mph 11 mph 97% 0 in
08:45 41.9 °F 42.8 °F 29.5 in WSW 7.2 mph 11 mph 98% 0.01 in
08:48 41.9 °F 42.8 °F 29.5 in WSW 7.8 mph 13.6 mph 98% 0.01 in
08:50 41.9 °F 42.8 °F 29.5 in WSW 6.7 mph 13.6 mph 98% 0.01 in
08:54 41.7 °F 42.8 °F 29.5 in WSW 7.4 mph 13.6 mph 98% 0.01 in
08:59 41.7 °F 42.8 °F 29.5 in WSW 6 mph 10.7 mph 98% 0.01 in
09:02 41.7 °F 42.8 °F 29.5 in WSW 6 mph 10.1 mph 98% 0.01 in
09:07 41.7 °F 42.8 °F 29.5 in SW 5.4 mph 8.7 mph 98% 0.01 in
09:09 41.7 °F 42.8 °F 29.5 in WSW 6.3 mph 7.8 mph 98% 0.01 in
09:14 41.5 °F 42.8 °F 29.5 in WSW 7.6 mph 8.5 mph 98% 0.01 in
09:18 41.7 °F 42.8 °F 29.5 in WSW 7.8 mph 10.3 mph 98% 0.01 in
09:20 41.7 °F 42.8 °F 29.5 in WSW 9.8 mph 10.3 mph 98% 0.01 in
09:25 41.7 °F 42.8 °F 29.5 in WSW 6 mph 9.8 mph 98% 0.01 in
09:27 41.7 °F 42.8 °F 29.6 in West 4.9 mph 9.8 mph 98% 0.01 in
09:32 41.7 °F 42.8 °F 29.6 in WSW 4.3 mph 7.6 mph 98% 0.01 in
09:33 41.7 °F 42.8 °F 29.6 in WSW 6.3 mph 7.2 mph 98% 0.01 in
09:38 41.7 °F 42.8 °F 29.6 in SSW 6.5 mph 7.2 mph 98% 0.01 in
09:39 41.9 °F 42.8 °F 29.6 in WSW 8.1 mph 9.6 mph 98% 0.01 in
09:40 41.9 °F 42.8 °F 29.6 in WSW 6 mph 9.6 mph 98% 0.01 in
09:45 42.1 °F 42.8 °F 29.6 in West 7.6 mph 10.1 mph 98% 0.01 in
09:46 42.1 °F 42.8 °F 29.6 in West 9.8 mph 10.1 mph 98% 0.01 in
09:49 42.1 °F 42.8 °F 29.6 in WSW 7.8 mph 10.1 mph 98% 0.01 in
09:53 42.1 °F 42.8 °F 29.6 in WSW 5.6 mph 10.5 mph 98% 0.03 in
09:58 41.7 °F 42.8 °F 29.6 in WSW 6.7 mph 10.5 mph 98% 0.03 in
09:59 41.7 °F 42.8 °F 29.6 in SW 5.4 mph 10.5 mph 98% 0.03 in
10:04 41.5 °F 42.8 °F 29.6 in SW 7.2 mph 10.1 mph 98% 0.03 in
10:05 41.5 °F 42.8 °F 29.6 in WSW 8.5 mph 10.5 mph 98% 0.03 in
10:10 41.7 °F 42.8 °F 29.6 in WSW 6.5 mph 10.5 mph 98% 0.03 in
10:15 41.5 °F 42.8 °F 29.6 in SSW 6.3 mph 8.7 mph 98% 0.03 in
10:19 41.7 °F 42.8 °F 29.6 in WSW 8.5 mph 9.6 mph 98% 0.03 in
10:20 41.7 °F 42.8 °F 29.6 in SW 10.1 mph 10.1 mph 98% 0.03 in
10:25 41.9 °F 42.8 °F 29.6 in WSW 10.5 mph 15.9 mph 98% 0.03 in
10:28 41.9 °F 42.8 °F 29.6 in WSW 15.4 mph 15.9 mph 98% 0.03 in
10:33 41.7 °F 42.8 °F 29.6 in WSW 13.2 mph 20.4 mph 98% 0.05 in
10:35 41.7 °F 42.8 °F 29.6 in WSW 17.2 mph 20.4 mph 98% 0.05 in
10:37 41.7 °F 42.8 °F 29.6 in WSW 13 mph 20.4 mph 98% 0.06 in
10:42 41.7 °F 42.8 °F 29.6 in WSW 14.8 mph 17.9 mph 98% 0.09 in
10:43 41.7 °F 42.8 °F 29.6 in WSW 16.8 mph 17.9 mph 98% 0.09 in
10:44 41.7 °F 42.8 °F 29.6 in WSW 16.1 mph 17.9 mph 98% 0.09 in
10:49 41.5 °F 42.8 °F 29.6 in SW 12.8 mph 17.7 mph 98% 0.1 in
10:51 41.5 °F 42.8 °F 29.6 in SSW 15.2 mph 17.7 mph 98% 0.09 in
10:54 41.5 °F 42.8 °F 29.6 in WSW 10.3 mph 17.7 mph 98% 0.09 in
10:57 41.5 °F 42.8 °F 29.6 in WSW 10.5 mph 15.2 mph 98% 0.09 in
11:02 41.7 °F 42.8 °F 29.6 in SW 6.5 mph 12.8 mph 98% 0.09 in
11:07 41.7 °F 42.8 °F 29.6 in SSW 11 mph 12.5 mph 98% 0.09 in
11:08 41.7 °F 42.8 °F 29.6 in SW 6.3 mph 12.5 mph 98% 0.09 in
11:13 42.4 °F 42.8 °F 29.6 in WSW 8.5 mph 12.5 mph 98% 0.09 in
11:18 42.6 °F 42.8 °F 29.6 in WSW 8.5 mph 12.5 mph 98% 0.09 in
11:20 42.6 °F 42.8 °F 29.6 in SW 7.8 mph 12.3 mph 98% 0.09 in
11:25 42.8 °F 42.8 °F 29.6 in SW 7.2 mph 10.5 mph 98% 0.09 in
11:26 42.8 °F 42.8 °F 29.6 in SW 8.5 mph 9.6 mph 98% 0.1 in
11:27 43 °F 42.8 °F 29.6 in SW 8.5 mph 8.7 mph 98% 0.1 in
11:32 43.2 °F 42.8 °F 29.6 in SW 9.8 mph 12.3 mph 98% 0.07 in
11:36 43.3 °F 42.8 °F 29.6 in SSW 8.1 mph 12.3 mph 98% 0.06 in
11:41 43.5 °F 42.8 °F 29.6 in WSW 5.8 mph 13 mph 98% 0.04 in
11:46 43.7 °F 44.6 °F 29.6 in SW 10.5 mph 13 mph 98% 0.01 in
11:51 43.9 °F 44.6 °F 29.6 in WSW 10.7 mph 15.2 mph 98% 0.01 in
11:55 44.1 °F 44.6 °F 29.6 in SW 11 mph 19 mph 98% 0.01 in
12:00 43.9 °F 44.6 °F 29.6 in WSW 13 mph 19 mph 98% 0.01 in
12:01 43.7 °F 44.6 °F 29.6 in SW 20.8 mph 20.8 mph 98% 0.01 in
12:05 44.1 °F 42.8 °F 29.6 in WSW 15.2 mph 20.8 mph 97% 0.01 in
12:06 44.1 °F 42.8 °F 29.6 in SW 13.6 mph 20.8 mph 97% 0.01 in
12:11 44.2 °F 42.8 °F 29.6 in SW 10.3 mph 20.8 mph 97% 0.01 in
12:16 44.4 °F 44.6 °F 29.6 in WSW 17.9 mph 17.9 mph 96% 0.01 in
12:17 44.4 °F 44.6 °F 29.6 in WSW 12.3 mph 17.9 mph 96% 0.01 in
12:21 44.2 °F 42.8 °F 29.6 in WSW 11 mph 19.5 mph 96% 0.01 in
12:23 44.2 °F 42.8 °F 29.6 in WSW 9.2 mph 20.6 mph 96% 0.01 in
12:28 44.2 °F 42.8 °F 29.6 in SSW 13.6 mph 20.6 mph 95% 0 in
12:30 44.2 °F 42.8 °F 29.6 in WSW 12.8 mph 20.6 mph 95% 0 in
12:35 44.6 °F 42.8 °F 29.6 in WSW 8.7 mph 19 mph 94% 0 in
12:36 44.6 °F 42.8 °F 29.6 in SSW 10.1 mph 19 mph 94% 0 in
12:37 44.6 °F 42.8 °F 29.6 in WSW 10.3 mph 15.7 mph 94% 0 in
12:42 44.6 °F 42.8 °F 29.5 in WSW 11.4 mph 15.2 mph 94% 0 in
12:44 44.8 °F 42.8 °F 29.5 in WSW 13.9 mph 15.9 mph 93% 0 in
12:48 45 °F 42.8 °F 29.5 in WSW 13 mph 16.1 mph 92% 0 in
12:50 45 °F 42.8 °F 29.5 in WSW 13 mph 16.8 mph 92% 0 in
12:55 45 °F 42.8 °F 29.5 in WSW 12.1 mph 16.8 mph 91% 0 in
12:59 45.1 °F 42.8 °F 29.5 in SW 15.2 mph 17.2 mph 90% 0 in
13:04 45.3 °F 42.8 °F 29.5 in SW 14.8 mph 17.2 mph 89% 0 in
13:07 45.5 °F 42.8 °F 29.5 in SW 7.8 mph 17.2 mph 89% 0 in
13:12 45.5 °F 42.8 °F 29.6 in WSW 15.7 mph 17.7 mph 88% 0 in
13:14 45 °F 42.8 °F 29.5 in WSW 12.1 mph 16.8 mph 91% 0 in
13:15 45.3 °F 42.8 °F 29.6 in SW 10.7 mph 17.7 mph 87% 0 in
13:20 45.1 °F 41 °F 29.6 in WSW 15.4 mph 19.7 mph 86% 0 in
13:21 45.1 °F 41 °F 29.6 in SW 17.7 mph 19.7 mph 86% 0 in
13:25 45 °F 42.8 °F 29.5 in WSW 12.1 mph 16.8 mph 91% 0 in
13:28 45.5 °F 42.8 °F 29.6 in WSW 10.5 mph 19.2 mph 86% 0 in
13:32 45.5 °F 42.8 °F 29.6 in SSW 10.1 mph 18.1 mph 86% 0 in
13:34 45 °F 42.8 °F 29.5 in WSW 12.1 mph 16.8 mph 91% 0 in
13:38 45.3 °F 41 °F 29.6 in WSW 13.6 mph 20.1 mph 85% 0 in
13:40 45 °F 42.8 °F 29.5 in WSW 12.1 mph 16.8 mph 91% 0 in
13:45 45.3 °F 41 °F 29.6 in SW 9.6 mph 20.1 mph 84% 0 in
13:50 45.5 °F 42.8 °F 29.6 in SW 10.5 mph 16.8 mph 85% 0 in
13:52 45 °F 42.8 °F 29.5 in WSW 12.1 mph 16.8 mph 91% 0 in
13:57 45.7 °F 42.8 °F 29.6 in SSW 10.5 mph 17.2 mph 86% 0 in
14:00 45.9 °F 42.8 °F 29.6 in SW 11 mph 19.5 mph 86% 0 in
14:05 45.7 °F 42.8 °F 29.6 in WSW 17.2 mph 19.5 mph 85% 0 in
14:06 45 °F 42.8 °F 29.5 in WSW 12.1 mph 16.8 mph 91% 0 in
14:10 45 °F 42.8 °F 29.5 in WSW 12.1 mph 16.8 mph 91% 0 in
14:12 45 °F 42.8 °F 29.5 in WSW 12.1 mph 16.8 mph 91% 0 in
14:16 45.9 °F 41 °F 29.5 in WSW 12.5 mph 18.1 mph 84% 0 in
14:19 46 °F 41 °F 29.5 in SW 8.1 mph 18.1 mph 84% 0 in
14:23 46 °F 41 °F 29.5 in SSW 8.7 mph 18.1 mph 83% 0 in
14:24 45 °F 42.8 °F 29.5 in WSW 12.1 mph 16.8 mph 91% 0 in
14:26 46 °F 41 °F 29.5 in WSW 10.5 mph 13.4 mph 83% 0 in
14:31 45.9 °F 41 °F 29.5 in SW 11.9 mph 17 mph 83% 0 in
14:32 45.9 °F 41 °F 29.5 in SSW 11.4 mph 17 mph 83% 0 in
14:33 45.9 °F 41 °F 29.5 in WSW 13.2 mph 17 mph 83% 0 in
14:38 45.5 °F 41 °F 29.5 in WSW 10.5 mph 17 mph 83% 0 in
14:40 45 °F 42.8 °F 29.5 in WSW 12.1 mph 16.8 mph 91% 0 in
14:41 45 °F 42.8 °F 29.5 in WSW 12.1 mph 16.8 mph 91% 0 in
14:46 45.5 °F 41 °F 29.5 in WSW 12.8 mph 15.4 mph 83% 0 in
14:48 45.5 °F 41 °F 29.5 in WSW 14.5 mph 15.4 mph 83% 0 in
14:51 45.7 °F 41 °F 29.5 in SW 10.5 mph 15.4 mph 83% 0 in
14:53 45.7 °F 41 °F 29.5 in SSW 11 mph 15.9 mph 83% 0 in
14:58 45 °F 42.8 °F 29.5 in WSW 12.1 mph 16.8 mph 91% 0 in
14:59 45 °F 42.8 °F 29.5 in WSW 12.1 mph 16.8 mph 91% 0 in
15:00 45.9 °F 41 °F 29.5 in SW 11 mph 16.3 mph 83% 0 in
15:05 45 °F 42.8 °F 29.5 in WSW 12.1 mph 16.8 mph 91% 0 in
15:08 45 °F 42.8 °F 29.5 in WSW 12.1 mph 16.8 mph 91% 0 in
15:12 45 °F 42.8 °F 29.5 in WSW 12.1 mph 16.8 mph 91% 0 in
15:13 45.9 °F 41 °F 29.5 in SSW 8.1 mph 13.2 mph 82% 0 in
15:18 45 °F 42.8 °F 29.5 in WSW 12.1 mph 16.8 mph 91% 0 in
15:23 45.9 °F 41 °F 29.5 in WSW 7.6 mph 12.8 mph 81% 0 in
15:25 46 °F 41 °F 29.5 in SSW 10.1 mph 12.8 mph 81% 0 in
15:30 45 °F 42.8 °F 29.5 in WSW 12.1 mph 16.8 mph 91% 0 in
15:33 46 °F 41 °F 29.5 in SW 13 mph 15.4 mph 81% 0 in
15:36 46 °F 41 °F 29.5 in SW 13 mph 15.4 mph 81% 0 in
15:40 45 °F 42.8 °F 29.5 in WSW 12.1 mph 16.8 mph 91% 0 in
15:42 45 °F 42.8 °F 29.5 in WSW 12.1 mph 16.8 mph 91% 0 in
15:45 45 °F 42.8 °F 29.5 in WSW 12.1 mph 16.8 mph 91% 0 in
15:50 45 °F 42.8 °F 29.5 in WSW 12.1 mph 16.8 mph 91% 0 in
15:52 45 °F 42.8 °F 29.5 in WSW 12.1 mph 16.8 mph 91% 0 in
15:57 45 °F 42.8 °F 29.5 in WSW 12.1 mph 16.8 mph 91% 0 in
15:58 45 °F 42.8 °F 29.5 in WSW 12.1 mph 16.8 mph 91% 0 in
16:03 45 °F 42.8 °F 29.5 in WSW 12.1 mph 16.8 mph 91% 0 in
16:04 46 °F 41 °F 29.5 in SW 13 mph 15.4 mph 81% 0 in
16:05 45 °F 42.8 °F 29.5 in WSW 12.1 mph 16.8 mph 91% 0 in
16:10 46 °F 41 °F 29.5 in SW 13 mph 15.4 mph 81% 0 in
16:11 46 °F 41 °F 29.5 in SW 13 mph 15.4 mph 81% 0 in
16:12 45 °F 42.8 °F 29.5 in WSW 12.1 mph 16.8 mph 91% 0 in
16:16 45 °F 42.8 °F 29.5 in WSW 12.1 mph 16.8 mph 91% 0 in
16:21 46 °F 41 °F 29.5 in SW 13 mph 15.4 mph 81% 0 in
16:23 46 °F 41 °F 29.5 in SW 13 mph 15.4 mph 81% 0 in
16:27 46 °F 41 °F 29.5 in SW 13 mph 15.4 mph 81% 0 in
16:32 46 °F 41 °F 29.5 in SW 13 mph 15.4 mph 81% 0 in
16:33 46 °F 41 °F 29.5 in SW 13 mph 15.4 mph 81% 0 in
16:34 46 °F 41 °F 29.5 in SW 13 mph 15.4 mph 81% 0 in
16:39 45 °F 42.8 °F 29.5 in WSW 12.1 mph 16.8 mph 91% 0 in
16:45 45 °F 42.8 °F 29.5 in WSW 12.1 mph 16.8 mph 91% 0 in
16:46 45 °F 42.8 °F 29.5 in WSW 12.1 mph 16.8 mph 91% 0 in
16:51 46 °F 41 °F 29.5 in SW 13 mph 15.4 mph 81% 0 in
16:54 45 °F 42.8 °F 29.5 in WSW 12.1 mph 16.8 mph 91% 0 in
16:59 45 °F 42.8 °F 29.5 in WSW 12.1 mph 16.8 mph 91% 0 in
17:00 45 °F 42.8 °F 29.5 in WSW 12.1 mph 16.8 mph 91% 0 in
17:01 45 °F 42.8 °F 29.5 in WSW 12.1 mph 16.8 mph 91% 0 in
17:06 46 °F 41 °F 29.5 in SW 13 mph 15.4 mph 81% 0 in
17:08 45 °F 42.8 °F 29.5 in WSW 12.1 mph 16.8 mph 91% 0 in
17:11 46 °F 41 °F 29.5 in SW 13 mph 15.4 mph 81% 0 in
17:16 45 °F 42.8 °F 29.5 in WSW 12.1 mph 16.8 mph 91% 0 in
17:19 46 °F 41 °F 29.5 in SW 13 mph 15.4 mph 81% 0 in
17:21 46 °F 41 °F 29.5 in SW 13 mph 15.4 mph 81% 0 in
17:26 45 °F 42.8 °F 29.5 in WSW 12.1 mph 16.8 mph 91% 0 in
17:27 46 °F 41 °F 29.5 in SW 13 mph 15.4 mph 81% 0 in
17:31 46 °F 41 °F 29.5 in SW 13 mph 15.4 mph 81% 0 in
17:32 46 °F 41 °F 29.5 in SW 13 mph 15.4 mph 81% 0 in
17:33 45 °F 42.8 °F 29.5 in WSW 12.1 mph 16.8 mph 91% 0 in
17:38 45 °F 42.8 °F 29.5 in WSW 12.1 mph 16.8 mph 91% 0 in
17:43 45 °F 42.8 °F 29.5 in WSW 12.1 mph 16.8 mph 91% 0 in
17:48 45 °F 42.8 °F 29.5 in WSW 12.1 mph 16.8 mph 91% 0 in
17:49 45 °F 42.8 °F 29.5 in WSW 12.1 mph 16.8 mph 91% 0 in
17:51 45 °F 42.8 °F 29.5 in WSW 12.1 mph 16.8 mph 91% 0 in
17:56 45 °F 42.8 °F 29.5 in WSW 12.1 mph 16.8 mph 91% 0 in
17:57 45 °F 42.8 °F 29.5 in WSW 12.1 mph 16.8 mph 91% 0 in
18:02 45 °F 42.8 °F 29.5 in WSW 12.1 mph 16.8 mph 91% 0 in
18:03 45 °F 42.8 °F 29.5 in WSW 12.1 mph 16.8 mph 91% 0 in
18:08 45 °F 42.8 °F 29.5 in WSW 12.1 mph 16.8 mph 91% 0 in
18:10 45 °F 42.8 °F 29.5 in WSW 12.1 mph 16.8 mph 91% 0 in
18:13 46 °F 41 °F 29.5 in SW 13 mph 15.4 mph 81% 0 in
18:18 46 °F 41 °F 29.5 in SW 13 mph 15.4 mph 81% 0 in
18:19 46 °F 41 °F 29.5 in SW 13 mph 15.4 mph 81% 0 in
18:23 46 °F 41 °F 29.5 in SW 13 mph 15.4 mph 81% 0 in
18:28 46 °F 41 °F 29.5 in SW 13 mph 15.4 mph 81% 0 in
18:29 46 °F 41 °F 29.5 in SW 13 mph 15.4 mph 81% 0 in
18:34 46 °F 41 °F 29.5 in SW 13 mph 15.4 mph 81% 0 in
18:37 45 °F 42.8 °F 29.5 in WSW 12.1 mph 16.8 mph 91% 0 in
18:39 45 °F 42.8 °F 29.5 in WSW 12.1 mph 16.8 mph 91% 0 in
18:42 45 °F 42.8 °F 29.5 in WSW 12.1 mph 16.8 mph 91% 0 in
18:45 45 °F 42.8 °F 29.5 in WSW 12.1 mph 16.8 mph 91% 0 in
18:48 46 °F 41 °F 29.5 in SW 13 mph 15.4 mph 81% 0 in
18:50 45 °F 42.8 °F 29.5 in WSW 12.1 mph 16.8 mph 91% 0 in
18:51 45 °F 42.8 °F 29.5 in WSW 12.1 mph 16.8 mph 91% 0 in
18:56 46 °F 41 °F 29.5 in SW 13 mph 15.4 mph 81% 0 in
18:58 45 °F 42.8 °F 29.5 in WSW 12.1 mph 16.8 mph 91% 0 in
19:02 45 °F 42.8 °F 29.5 in WSW 12.1 mph 16.8 mph 91% 0 in
19:05 46 °F 41 °F 29.5 in SW 13 mph 15.4 mph 81% 0 in
19:07 46 °F 41 °F 29.5 in SW 13 mph 15.4 mph 81% 0 in
19:09 45 °F 42.8 °F 29.5 in WSW 12.1 mph 16.8 mph 91% 0 in
19:14 45 °F 42.8 °F 29.5 in WSW 12.1 mph 16.8 mph 91% 0 in
19:17 46 °F 41 °F 29.5 in SW 13 mph 15.4 mph 81% 0 in
19:22 46 °F 41 °F 29.5 in SW 13 mph 15.4 mph 81% 0 in
19:24 45 °F 42.8 °F 29.5 in WSW 12.1 mph 16.8 mph 91% 0 in
19:29 46 °F 41 °F 29.5 in SW 13 mph 15.4 mph 81% 0 in
19:30 45 °F 42.8 °F 29.5 in WSW 12.1 mph 16.8 mph 91% 0 in
19:35 46 °F 41 °F 29.5 in SW 13 mph 15.4 mph 81% 0 in
19:37 46 °F 41 °F 29.5 in SW 13 mph 15.4 mph 81% 0 in
19:41 45 °F 42.8 °F 29.5 in WSW 12.1 mph 16.8 mph 91% 0 in
19:43 45 °F 42.8 °F 29.5 in WSW 12.1 mph 16.8 mph 91% 0 in
19:48 46 °F 41 °F 29.5 in SW 13 mph 15.4 mph 81% 0 in
19:49 46 °F 41 °F 29.5 in SW 13 mph 15.4 mph 81% 0 in
19:52 46 °F 41 °F 29.5 in SW 13 mph 15.4 mph 81% 0 in
19:55 46 °F 41 °F 29.5 in SW 13 mph 15.4 mph 81% 0 in
20:00 45 °F 42.8 °F 29.5 in WSW 12.1 mph 16.8 mph 91% 0 in
20:01 46 °F 41 °F 29.5 in SW 13 mph 15.4 mph 81% 0 in
20:02 46 °F 41 °F 29.5 in SW 13 mph 15.4 mph 81% 0 in
20:06 46 °F 41 °F 29.5 in SW 13 mph 15.4 mph 81% 0 in
20:07 45 °F 42.8 °F 29.5 in WSW 12.1 mph 16.8 mph 91% 0 in
20:08 46 °F 41 °F 29.5 in SW 13 mph 15.4 mph 81% 0 in
20:13 45 °F 42.8 °F 29.5 in WSW 12.1 mph 16.8 mph 91% 0 in
20:15 46 °F 41 °F 29.5 in SW 13 mph 15.4 mph 81% 0 in
20:18 45 °F 42.8 °F 29.5 in WSW 12.1 mph 16.8 mph 91% 0 in
20:20 46 °F 41 °F 29.5 in SW 13 mph 15.4 mph 81% 0 in
20:21 45 °F 42.8 °F 29.5 in WSW 12.1 mph 16.8 mph 91% 0 in
20:26 45 °F 42.8 °F 29.5 in WSW 12.1 mph 16.8 mph 91% 0 in
20:31 46 °F 41 °F 29.5 in SW 13 mph 15.4 mph 81% 0 in
20:36 45 °F 42.8 °F 29.5 in WSW 12.1 mph 16.8 mph 91% 0 in
20:37 46 °F 41 °F 29.5 in SW 13 mph 15.4 mph 81% 0 in
20:39 45 °F 42.8 °F 29.5 in WSW 12.1 mph 16.8 mph 91% 0 in
20:43 45 °F 42.8 °F 29.5 in WSW 12.1 mph 16.8 mph 91% 0 in
20:45 45 °F 42.8 °F 29.5 in WSW 12.1 mph 16.8 mph 91% 0 in
20:48 46 °F 41 °F 29.5 in SW 13 mph 15.4 mph 81% 0 in
20:53 45 °F 42.8 °F 29.5 in WSW 12.1 mph 16.8 mph 91% 0 in
20:57 45 °F 42.8 °F 29.5 in WSW 12.1 mph 16.8 mph 91% 0 in
20:59 46 °F 41 °F 29.5 in SW 13 mph 15.4 mph 81% 0 in
21:03 46 °F 41 °F 29.5 in SW 13 mph 15.4 mph 81% 0 in
21:07 46 °F 41 °F 29.5 in SW 13 mph 15.4 mph 81% 0 in
21:09 45 °F 42.8 °F 29.5 in WSW 12.1 mph 16.8 mph 91% 0 in
21:13 45 °F 42.8 °F 29.5 in WSW 12.1 mph 16.8 mph 91% 0 in
21:16 46 °F 41 °F 29.5 in SW 13 mph 15.4 mph 81% 0 in
21:19 46 °F 41 °F 29.5 in SW 13 mph 15.4 mph 81% 0 in
21:24 46 °F 41 °F 29.5 in SW 13 mph 15.4 mph 81% 0 in
21:29 45 °F 42.8 °F 29.5 in WSW 12.1 mph 16.8 mph 91% 0 in
21:30 46 °F 41 °F 29.5 in SW 13 mph 15.4 mph 81% 0 in
21:36 46 °F 41 °F 29.5 in SW 13 mph 15.4 mph 81% 0 in
21:41 46 °F 41 °F 29.5 in SW 13 mph 15.4 mph 81% 0 in
21:43 45 °F 42.8 °F 29.5 in WSW 12.1 mph 16.8 mph 91% 0 in
21:48 46 °F 41 °F 29.5 in SW 13 mph 15.4 mph 81% 0 in
21:50 46 °F 41 °F 29.5 in SW 13 mph 15.4 mph 81% 0 in
21:53 46 °F 41 °F 29.5 in SW 13 mph 15.4 mph 81% 0 in
21:56 45 °F 42.8 °F 29.5 in WSW 12.1 mph 16.8 mph 91% 0 in
22:01 45 °F 42.8 °F 29.5 in WSW 12.1 mph 16.8 mph 91% 0 in
22:02 46 °F 41 °F 29.5 in SW 13 mph 15.4 mph 81% 0 in
22:04 45 °F 42.8 °F 29.5 in WSW 12.1 mph 16.8 mph 91% 0 in
22:08 45 °F 42.8 °F 29.5 in WSW 12.1 mph 16.8 mph 91% 0 in
22:13 45 °F 42.8 °F 29.5 in WSW 12.1 mph 16.8 mph 91% 0 in
22:14 46 °F 41 °F 29.5 in SW 13 mph 15.4 mph 81% 0 in
22:18 46 °F 41 °F 29.5 in SW 13 mph 15.4 mph 81% 0 in
22:19 46 °F 41 °F 29.5 in SW 13 mph 15.4 mph 81% 0 in
22:24 46 °F 41 °F 29.5 in SW 13 mph 15.4 mph 81% 0 in
22:26 45 °F 42.8 °F 29.5 in WSW 12.1 mph 16.8 mph 91% 0 in
22:29 45 °F 42.8 °F 29.5 in WSW 12.1 mph 16.8 mph 91% 0 in
22:34 46 °F 41 °F 29.5 in SW 13 mph 15.4 mph 81% 0 in
22:39 46 °F 41 °F 29.5 in SW 13 mph 15.4 mph 81% 0 in
22:40 46 °F 41 °F 29.5 in SW 13 mph 15.4 mph 81% 0 in
22:45 46 °F 41 °F 29.5 in SW 13 mph 15.4 mph 81% 0 in
22:46 46 °F 41 °F 29.5 in SW 13 mph 15.4 mph 81% 0 in
22:49 46 °F 41 °F 29.5 in SW 13 mph 15.4 mph 81% 0 in
22:50 45 °F 42.8 °F 29.5 in WSW 12.1 mph 16.8 mph 91% 0 in
22:54 46 °F 41 °F 29.5 in SW 13 mph 15.4 mph 81% 0 in
22:57 46 °F 41 °F 29.5 in SW 13 mph 15.4 mph 81% 0 in
22:59 45 °F 42.8 °F 29.5 in WSW 12.1 mph 16.8 mph 91% 0 in
23:04 45 °F 42.8 °F 29.5 in WSW 12.1 mph 16.8 mph 91% 0 in
23:05 45 °F 42.8 °F 29.5 in WSW 12.1 mph 16.8 mph 91% 0 in
23:10 45 °F 42.8 °F 29.5 in WSW 12.1 mph 16.8 mph 91% 0 in
23:13 45 °F 42.8 °F 29.5 in WSW 12.1 mph 16.8 mph 91% 0 in
23:16 45 °F 42.8 °F 29.5 in WSW 12.1 mph 16.8 mph 91% 0 in
23:19 45 °F 42.8 °F 29.5 in WSW 12.1 mph 16.8 mph 91% 0 in
23:21 45 °F 42.8 °F 29.5 in WSW 12.1 mph 16.8 mph 91% 0 in
23:26 46 °F 41 °F 29.5 in SW 13 mph 15.4 mph 81% 0 in
23:31 46 °F 41 °F 29.5 in SW 13 mph 15.4 mph 81% 0 in
23:33 45 °F 42.8 °F 29.5 in WSW 12.1 mph 16.8 mph 91% 0 in
23:38 45 °F 42.8 °F 29.5 in WSW 12.1 mph 16.8 mph 91% 0 in
23:43 45 °F 42.8 °F 29.5 in WSW 12.1 mph 16.8 mph 91% 0 in
23:45 45 °F 42.8 °F 29.5 in WSW 12.1 mph 16.8 mph 91% 0 in
23:48 46 °F 41 °F 29.5 in SW 13 mph 15.4 mph 81% 0 in
23:53 46 °F 41 °F 29.5 in SW 13 mph 15.4 mph 81% 0 in
23:54 46 °F 41 °F 29.5 in SW 13 mph 15.4 mph 81% 0 in
23:58 46 °F 41 °F 29.5 in SW 13 mph 15.4 mph 81% 0 in
Données Historique de Météo Turbie

Mise a jour : 22/05/2018 19:56:12
Généré par Cumulus 1.9.4 (1099)